This is the latest recevied weather packets stored in our database for station/object OE2ATN. If no packets are shown the sender has not sent any weather packets the latest 10 day(s).
| Time | Temp. | Humidity | Pressure | Rain* | Wind** | Luminosity | Snow |
|---|---|---|---|---|---|---|---|
| 1777901068 | 24.44° C | 23% | 1018.9 hPa | 0 mm | - | - | - |
| 1777900768 | 24.44° C | 29% | 1019 hPa | 0 mm | - | - | - |
| 1777900468 | 24.44° C | 26% | 1018.9 hPa | 0 mm | - | - | - |
| 1777900167 | 24.44° C | 25% | 1019 hPa | 0 mm | - | - | - |
| 1777899868 | 25° C | 24% | 1019 hPa | 0 mm | - | - | - |
| 1777899568 | 25.56° C | 28% | 1019 hPa | 0 mm | - | - | - |
| 1777899267 | 25° C | 23% | 1019.1 hPa | 0 mm | - | - | - |
| 1777898967 | 25° C | 26% | 1019.2 hPa | 0 mm | - | - | - |
| 1777898668 | 25° C | 23% | 1019.3 hPa | 0 mm | - | - | - |
| 1777898367 | 24.44° C | 25% | 1019.3 hPa | 0 mm | - | - | - |
| 1777898067 | 24.44° C | 28% | 1019.6 hPa | 0 mm | - | - | - |
| 1777897767 | 23.89° C | 27% | 1019.4 hPa | 0 mm | - | - | - |
| 1777897467 | 24.44° C | 28% | 1019.6 hPa | 0 mm | - | - | - |
| 1777897166 | 24.44° C | 28% | 1019.7 hPa | 0 mm | - | - | - |
| 1777896867 | 24.44° C | 29% | 1019.7 hPa | 0 mm | - | - | - |
| 1777896566 | 23.89° C | 30% | 1019.7 hPa | 0 mm | - | - | - |
| 1777896267 | 24.44° C | 32% | 1019.8 hPa | 0 mm | - | - | - |
| 1777895967 | 24.44° C | 31% | 1019.8 hPa | 0 mm | - | - | - |
| 1777895667 | 23.89° C | 31% | 1019.9 hPa | 0 mm | - | - | - |
| 1777895366 | 23.89° C | 29% | 1019.9 hPa | 0 mm | - | - | - |
| 1777895066 | 23.89° C | 32% | 1020 hPa | 0 mm | - | - | - |
| 1777894766 | 23.89° C | 32% | 1020 hPa | 0 mm | - | - | - |
| 1777894466 | 24.44° C | 29% | 1020.1 hPa | 0 mm | - | - | - |
| 1777894166 | 23.89° C | 29% | 1020.2 hPa | 0 mm | - | - | - |
| 1777893865 | 23.89° C | 30% | 1020.2 hPa | 0 mm | - | - | - |
* Rain latest hour (hover to see other rain measurements)
** Current wind speed in m/s (hover to see current wind gust speed)